Weather reports worldwide

Advertisment
Tain Range, United Kingdom (3062): temperature & dewpoint: 22.02.2020 07:00:00 - 28.02.2020 07:00:00 (GMT)Tain Range, United Kingdom (3062): temperature -20cm & temperature -100cm: 22.02.2020 07:00:00 - 28.02.2020 07:00:00 (GMT)Tain Range, United Kingdom (3062): wind speed & gusts: 22.02.2020 07:00:00 - 28.02.2020 07:00:00 (GMT)Tain Range, United Kingdom (3062): wind direction: 22.02.2020 07:00:00 - 28.02.2020 07:00:00 (GMT)Tain Range, United Kingdom (3062): reduced air pressure: 22.02.2020 07:00:00 - 28.02.2020 07:00:00 (GMT)Tain Range, United Kingdom (3062): visibility: 22.02.2020 07:00:00 - 28.02.2020 07:00:00 (GMT)Tain Range, United Kingdom (3062): precipitation: 22.02.2020 07:00:00 - 28.02.2020 07:00:00 (GMT)
Date & Time tt [°C] td [°C] tt -20cm [°C] tt -100cm [°C] ff [km/h] ff [kn] fx [km/h] fx [kn] dd ppp [hPa] vv [km] rr [mm]
28.02.2020 07:00:00 2,1 0,7 - - 15 8 - - SSW 998,3 50 0,0
28.02.2020 06:00:00 1,8 0,6 - - 13 7 - - SW 999,0 45 0,0
28.02.2020 05:00:00 1,5 0,3 - - 4 2 - - NE 999,7 50 0,0
28.02.2020 04:00:00 2,0 0,7 - - 9 5 - - S 1000,5 40 0,0
28.02.2020 03:00:00 2,0 0,8 - - 15 8 - - SSW 1000,8 35 0,0
28.02.2020 02:00:00 2,3 0,9 - - 8 4 - - S 1001,4 50 0,0
28.02.2020 01:00:00 2,1 0,9 - - 9 5 - - SW 1002,0 40 0,0
28.02.2020 00:00:00 2,5 1,0 - - 11 6 - - SW 1001,9 45 0,2
27.02.2020 23:00:00 2,5 0,8 - - 16 9 - - SW 1001,9 50 0,0
27.02.2020 22:00:00 2,5 0,1 - - 18 10 - - SSW 1001,9 40 0,0
27.02.2020 21:00:00 2,8 0,4 - - 16 9 - - SSW 1001,4 30 0,0
27.02.2020 20:00:00 2,6 0,4 - - 16 9 - - W 1001,4 40 0,0
27.02.2020 19:00:00 2,7 0,3 - - 13 7 - - SSW 1000,7 30 0,0
27.02.2020 18:00:00 3,4 1,3 - - 15 8 - - W 999,7 40 0,4
27.02.2020 17:00:00 4,7 1,5 - - 28 15 - - W 998,5 30 0,0
27.02.2020 16:00:00 4,6 2,0 - - 18 10 - - SW 997,8 35 0,0
27.02.2020 15:00:00 3,6 2,2 - - 15 8 - - S 997,2 45 0,0
27.02.2020 14:00:00 2,4 0,9 - - 29 16 - - W 996,5 50 0,4
27.02.2020 13:00:00 2,2 0,7 - - 24 13 - - W 995,7 50 0,6
27.02.2020 12:00:00 1,7 0,8 - - 29 16 46 25 W 995,5 35 0,2
27.02.2020 11:00:00 2,0 0,4 - - 28 15 46 25 W 994,5 30 0,8
27.02.2020 10:00:00 0,9 0,3 - - 21 11 - - W 994,0 0,2 0,8
27.02.2020 09:00:00 2,4 -0,9 3,7 4,7 22 12 - - W 993,1 40 0,0
27.02.2020 08:00:00 0,7 -0,3 - - 11 6 - - S 992,8 45 0,0
27.02.2020 07:00:00 -0,3 -1,3 - - 21 11 - - SW 992,0 45 0,0
27.02.2020 06:00:00 -0,1 -1,2 - - 15 8 - - SSW 991,8 50 0,0
27.02.2020 05:00:00 -0,2 -1,3 - - 18 10 - - SSW 991,6 50 0,0
27.02.2020 04:00:00 -0,1 -1,0 - - 18 10 - - SW 991,8 50 0,0
27.02.2020 03:00:00 0,0 -1,2 - - 24 13 - - SW 992,2 30 0,0
27.02.2020 02:00:00 0,4 -1,8 - - 13 7 - - SW 992,9 50 0,0
27.02.2020 01:00:00 0,2 -1,5 - - 18 10 - - SW 992,9 50 0,0
27.02.2020 00:00:00 -0,4 -1,3 - - 13 7 - - SW 993,0 50 0,0
26.02.2020 23:00:00 0,3 -1,0 - - 18 10 - - SW 993,8 50 0,0
26.02.2020 22:00:00 0,7 -1,1 - - 21 11 - - SW 994,2 50 0,0
26.02.2020 21:00:00 0,6 -0,9 - - 21 11 - - SW 994,9 50 0,0
26.02.2020 20:00:00 0,8 -1,0 - - 22 12 - - SW 995,2 40 0,0
26.02.2020 19:00:00 1,3 -1,3 - - 21 11 - - SW 995,6 50 0,0
26.02.2020 18:00:00 1,1 -2,1 - - 8 4 - - W 996,1 50 0,0
26.02.2020 17:00:00 2,3 -2,2 - - 21 11 - - WSW 996,2 50 0,0
26.02.2020 16:00:00 3,4 -1,8 - - 26 14 48 26 W 996,3 50 0,0
26.02.2020 15:00:00 4,4 0,5 - - 16 9 - - W 996,1 35 0,0
26.02.2020 14:00:00 4,0 2,1 - - 21 11 - - WNW 996,1 50 0,0
26.02.2020 13:00:00 2,7 0,7 - - 26 14 59 32 W 996,5 45 0,6
26.02.2020 12:00:00 4,4 -0,1 - - 22 12 - - W 996,1 26 0,0
26.02.2020 11:00:00 2,9 0,6 - - 31 17 - - W 995,7 40 0,0
26.02.2020 10:00:00 2,5 1,1 - - 11 6 - - W 995,3 35 0,2
26.02.2020 09:00:00 2,5 0,6 3,9 4,7 18 10 - - W 995,0 45 0,0
26.02.2020 08:00:00 2,3 -0,2 - - 15 8 - - W 994,3 45 0,0
26.02.2020 07:00:00 1,3 -0,3 - - 11 6 - - WSW 993,3 45 0,0
26.02.2020 06:00:00 0,5 -0,7 - - 11 6 - - SW 992,8 50 0,0
26.02.2020 05:00:00 1,6 0,1 - - 13 7 - - WSW 992,5 50 0,0
26.02.2020 04:00:00 1,2 -0,5 - - 16 9 - - WSW 992,1 45 0,0
26.02.2020 03:00:00 0,8 -1,0 - - 16 9 - - W 991,7 40 0,0
26.02.2020 02:00:00 0,3 -1,1 - - 18 10 - - WSW 991,3 50 0,0
26.02.2020 01:00:00 -0,1 -1,1 - - 16 9 - - SW 990,8 50 0,0
26.02.2020 00:00:00 -0,6 -1,5 - - 11 6 - - WSW 990,3 50 0,0
25.02.2020 23:00:00 -0,6 -1,7 - - 15 8 - - WSW 989,8 50 0,0
25.02.2020 22:00:00 -0,3 -1,8 - - 5 3 - - W 989,4 29 0,0
25.02.2020 21:00:00 0,6 -0,7 - - 9 5 - - W 989,0 50 0,0
25.02.2020 20:00:00 -0,3 -1,5 - - 9 5 - - W 988,9 50 0,0
25.02.2020 19:00:00 1,3 -0,5 - - 5 3 - - W 988,7 50 0,0
25.02.2020 18:00:00 1,5 0,3 - - 13 7 - - W 988,3 50 0,0
25.02.2020 17:00:00 3,4 1,0 - - 13 7 - - WSW 988,0 50 0,0
25.02.2020 16:00:00 4,8 1,4 - - 15 8 - - WSW 988,1 50 0,0
25.02.2020 15:00:00 5,7 1,5 - - 15 8 - - WSW 988,2 50 0,0
25.02.2020 14:00:00 5,8 2,5 - - 15 8 - - WSW 988,5 45 0,0
25.02.2020 13:00:00 5,0 1,9 - - 15 8 - - WSW 989,0 50 0,0
25.02.2020 12:00:00 4,3 1,8 - - 13 7 - - SSW 989,3 35 0,0
25.02.2020 11:00:00 3,7 2,0 - - 11 6 - - SW 989,9 50 0,2
25.02.2020 10:00:00 1,3 1,0 - - 8 4 - - SW 990,3 50 0,0
25.02.2020 09:00:00 -0,4 -0,5 3,7 4,7 0 0 - - N 990,8 0,2 0,0
25.02.2020 08:00:00 -0,8 -1,0 - - 4 2 - - WSW 991,2 40 0,0
25.02.2020 07:00:00 0,1 0,0 - - 11 6 - - SW 991,5 15 0,0
25.02.2020 06:00:00 0,4 0,3 - - 8 4 - - SW 992,1 11 0,0
25.02.2020 05:00:00 0,0 -0,1 - - 4 2 - - WSW 992,6 9 0,0
25.02.2020 04:00:00 0,3 0,2 - - 4 2 - - S 993,3 17 0,0
25.02.2020 03:00:00 0,8 0,7 - - 4 2 - - SW 994,0 18 0,0
25.02.2020 02:00:00 0,9 0,8 - - 4 2 - - WSW 994,8 11 0,2
25.02.2020 01:00:00 1,4 1,2 - - 8 4 - - WNW 995,2 6 0,0
25.02.2020 00:00:00 1,0 0,8 - - 8 4 - - NW 995,6 30 0,2
24.02.2020 23:00:00 0,7 0,4 - - 8 4 - - WNW 995,9 25 0,6
24.02.2020 22:00:00 1,9 0,7 - - 9 5 - - NE 996,4 12 1,0
24.02.2020 21:00:00 2,6 1,8 - - 16 9 - - NE 996,5 8 1,0
24.02.2020 20:00:00 2,9 1,7 - - 16 9 - - ENE 996,6 17 0,8
24.02.2020 19:00:00 2,6 1,7 - - 24 13 - - ENE 996,7 16 1,0
24.02.2020 18:00:00 2,6 1,8 - - 22 12 - - E 996,6 19 0,6
24.02.2020 17:00:00 2,6 1,6 - - 31 17 - - ENE 996,7 11 1,0
24.02.2020 16:00:00 3,0 1,9 - - 28 15 - - E 996,9 9 0,6
24.02.2020 15:00:00 2,8 1,8 - - 31 17 48 26 E 997,6 19 0,8
24.02.2020 14:00:00 2,9 1,7 - - 31 17 - - E 998,7 14 0,4
24.02.2020 13:00:00 3,3 1,1 - - 31 17 50 27 ESE 999,9 16 0,0
24.02.2020 12:00:00 4,2 -0,6 - - 31 17 50 27 E 1001,2 30 0,0
24.02.2020 11:00:00 4,1 -1,6 - - 28 15 - - E 1002,7 30 0,0
24.02.2020 10:00:00 3,5 0,0 - - 15 8 - - E 1003,9 30 0,0
24.02.2020 09:00:00 2,4 -0,3 4,0 4,7 15 8 - - E 1005,2 40 0,0
24.02.2020 08:00:00 -0,3 -0,7 - - 2 1 - - E 1007,0 19 0,0
24.02.2020 07:00:00 -1,0 -1,5 - - 2 1 - - N 1008,5 26 0,0
24.02.2020 06:00:00 -1,3 -2,2 - - 2 1 - - E 1009,5 21 0,0
24.02.2020 05:00:00 -0,7 -1,5 - - 4 2 - - ESE 1010,9 23 0,0
24.02.2020 04:00:00 -0,2 -1,7 - - 8 4 - - SW 1012,0 30 0,0
24.02.2020 03:00:00 0,5 -1,7 - - 11 6 - - SW 1013,1 30 0,0
24.02.2020 02:00:00 0,7 -1,4 - - 11 6 - - SSW 1014,4 30 0,0
24.02.2020 01:00:00 1,2 -1,2 - - 11 6 - - S 1015,1 22 0,0
24.02.2020 00:00:00 2,1 -0,6 - - 21 11 - - SW 1015,5 40 0,0
23.02.2020 23:00:00 2,8 -0,6 - - 16 9 - - WSW 1015,8 40 0,0
23.02.2020 22:00:00 2,4 -0,2 - - 16 9 - - SSW 1015,4 45 0,0
23.02.2020 21:00:00 1,9 -0,6 - - 11 6 - - SW 1015,0 50 0,0
23.02.2020 20:00:00 2,2 -0,2 - - 16 9 - - WSW 1015,0 35 0,0
23.02.2020 19:00:00 2,1 -0,3 - - 13 7 - - WSW 1014,1 45 0,0
23.02.2020 18:00:00 3,7 0,8 - - 13 7 - - W 1012,7 30 0,0
23.02.2020 17:00:00 5,2 0,7 - - 34 18 54 29 NW 1010,5 30 0,0
23.02.2020 16:00:00 6,1 1,7 - - 39 21 61 33 NW 1008,8 30 0,0
23.02.2020 15:00:00 7,2 2,8 - - 35 19 61 33 WNW 1007,1 26 0,0
23.02.2020 14:00:00 6,6 3,1 - - 48 26 68 37 WNW 1004,9 35 0,0
23.02.2020 13:00:00 6,0 2,5 - - 35 19 54 29 W 1003,5 50 0,0
23.02.2020 12:00:00 4,9 1,7 - - 31 17 55 30 W 1002,5 40 0,0
23.02.2020 11:00:00 3,9 1,5 - - 28 15 54 29 W 1001,3 50 0,2
23.02.2020 10:00:00 2,7 1,5 - - 21 11 50 27 SW 1000,2 50 0,8
23.02.2020 09:00:00 2,4 0,3 4,2 4,9 28 15 - - SW 999,3 50 0,0
23.02.2020 08:00:00 1,2 -0,4 - - 11 6 - - SSW 998,6 50 0,0
23.02.2020 07:00:00 1,6 0,1 - - 24 13 - - SW 998,0 45 0,4
23.02.2020 06:00:00 2,2 0,2 - - 26 14 - - WSW 998,4 7 0,0
23.02.2020 05:00:00 1,8 -0,7 - - 24 13 - - WSW 997,9 23 0,0
23.02.2020 04:00:00 2,1 -0,5 - - 24 13 - - SW 998,1 23 0,0
23.02.2020 03:00:00 1,9 -0,2 - - 21 11 - - SW 998,4 17 0,0
23.02.2020 02:00:00 2,1 -0,2 - - 31 17 - - SW 998,9 24 0,0
23.02.2020 01:00:00 2,3 0,2 - - 31 17 - - SW 999,5 40 0,0
23.02.2020 00:00:00 2,1 0,3 - - 34 18 67 36 SW 999,3 40 0,0
22.02.2020 23:00:00 2,3 0,5 - - 41 22 68 37 WSW 998,9 50 0,8
22.02.2020 22:00:00 4,4 -0,6 - - 39 21 61 33 WSW 998,9 17 0,0
22.02.2020 21:00:00 3,1 0,3 - - 39 21 67 36 SW 998,3 21 0,0
22.02.2020 20:00:00 3,7 -0,7 - - 28 15 50 27 WSW 997,7 18 0,0
22.02.2020 19:00:00 3,1 0,1 - - 28 15 55 30 WSW 997,2 30 0,0
22.02.2020 18:00:00 3,7 0,3 - - 31 17 59 32 W 996,1 14 0,0
22.02.2020 17:00:00 2,9 0,2 - - 37 20 65 35 WSW 995,2 35 0,2
22.02.2020 16:00:00 3,0 1,5 - - 42 23 80 43 WSW 994,3 35 0,6
22.02.2020 15:00:00 4,2 1,2 - - 37 20 70 38 SW 994,4 12 0,4
22.02.2020 14:00:00 5,4 1,1 - - 35 19 76 41 WSW 992,5 17 0,2
22.02.2020 13:00:00 4,4 1,7 - - 37 20 80 43 SW 991,6 30 0,4
22.02.2020 12:00:00 4,1 -0,6 - - 42 23 67 36 WSW 991,4 17 0,0
22.02.2020 11:00:00 4,0 -0,9 - - 39 21 65 35 WSW 990,9 30 0,2
22.02.2020 10:00:00 4,1 -1,2 - - 39 21 55 30 WSW 990,7 40 0,0
22.02.2020 09:00:00 2,1 -1,0 4,7 4,7 18 10 55 30 WSW 989,8 19 0,0
22.02.2020 08:00:00 1,8 -0,6 - - 28 15 57 31 WSW 988,9 50 0,2
22.02.2020 07:00:00 2,1 0,7 - - 44 24 67 36 W 989,4 6 0,4

tt = temperature
td = dewpoint
tt -20cm = temperature -20cm
tt -100cm = temperature -100cm
ff = wind speed
fx = gusts
dd = wind direction
ppp = reduced air pressure
vv = visibility
rr = precipitation

Next stations